SCP
0 0 0 0 0 0 0 0 0 0 0 0 0 0 0 0 0 0 0 0 0 0 0 0 0 0 0 0 0 0 0 0 0 0 0 0 0 0 0 0 0 0 0 0
0 0 0 0 0 0 0 0 0 0 0 0 0 0 0 0 0 0 0 0 0 0 0 0 0 0 0 0 0 0 0 0 0 0 0 0 0 0 0 0 0 0 0 0
0 0 0 0 0 0 0 0 0 0 0 0 0 0 0 0 0 0 0 0 0 0 0 0 0 0 0 0 0 0 0 0 0 0 0 0 0 0 0 0 0 0 0 0
0 0 0 0 0 0 0 0 0 0 0 0 0 0 0 0 0 0 0 0 0 0 0 0 0 0 0 0 0 0 0 0 0 0 0 0 0 0 0 0 0 0 0 0
0 0 0 0 0 0 0 0 0 0 0 0 0 0 0 0 0 0 0 0 0 0 0 0 0 0 0 0 0 0 0 0 0 0 0 0 0 0 0 0 0 0 0 0
0 0 0 0 0 0 0 0 0 0 0 0 0 0 0 0 0 0 0 0 0 0 0 0 0 0 0 0 0 0 0 0 0 0 0 0 0 0 0 0 0 0 0 0
0 0 0 0 0 0 0 0 0 0 0 0 0 0 0 0 0 0 0 0 0 0 0 0 0 0 0 0 0 0 0 0 0 0 0 0 0 0 0 0 0 0 0 0
0 0 0 0 0 0 0 0 0 0 0 0 0 0 0 0 0 0 0 0 0 0 0 0 0 0 0 0 0 0 0 0 0 0 0 0 0 0 0 0 0 0 0 0
0 0 0 0 0 0 0 0 0 0 0 0 0 0 0 0 0 0 0 0 0 0 0 0 0 0 0 0 0 0 0 0 0 0 0 0 0 0 0 0 0 0 0 0
0 0 0 0 0 0 0 0 0 0 0 0 0 0 0 0 0 0 0 0 0 0 0 0 0 0 0 0 0 0 0 0 0 0 0 0 0 0 0 0 0 0 0 0
0 0 0 0 0 0 0 0 0 0 0 0 0 0 0 0 0 0 0 0 0 0 0 0 0 0 0 0 0 0 0 0 0 0 0 0 0 0 0 0 0 0 0 0
0 0 0 0 0 0 0 0 0 0 0 0 0 0 0 0 0 0 0 0 0 0 0 0 0 0 0 0 0 0 0 0 0 0 0 0 0 0 0 0 0 0 0 0
0 0 0 0 0 0 0 0 0 0 0 0 0 0 0 0 0 0 0 0 0 0 0 0 0 0 0 0 0 0 0 0 0 0 0 0 0 0 0 0 0 0 0 0
0 0 0 0 0 0 0 0 0 0 0 0 0 0 0 0 0 0 0 0 0 0 0 0 0 0 0 0 0 0 0 0 0 0 0 0 0 0 0 0 0 0 0 0
0 0 0 0 0 0 0 0 0 0 0 0 0 0 0 0 0 0 0 0 0 0 0 0 0 0 0 0 0 0 0 0 0 0 0 0 0 0 0 0 0 0 0 0
0 0 0 0 0 0 0 0 0 0 0 0 0 0 0 0 0 0 0 0 0 0 0 0 0 0 0 0 0 0 0 0 0 0 0 0 0 0 0 0 0 0 0 0
0 0 0 0 0 0 0 0 0 0 0 0 0 0 0 0 0 0 0 0 0 0 0 0 0 0 0 0 0 0 0 0 0 0 0 0 0 0 0 0 0 0 0 0
0 0 0 0 0 0 0 0 0 0 0 0 0 0 0 0 0 0 0 0 0 0 0 0 0 0 0 0 0 0 0 0 0 0 0 0 0 0 0 0 0 0 0 0
0 0 0 0 0 0 0 0 0 0 0 0 0 0 0 0 0 0 0 0 0 0 0 0 0 0 0 0 1 1 1 1 1 1 1 1 0 0 0 0 0 0 0 0
0 0 0 0 0 0 0 0 0 0 0 0 0 0 0 0 0 0 0 0 0 0 0 0 0 0 1 1 1 1 1 1 1 1 1 1 1 1 0 0 0 0 0 0
0 0 0 0 0 0 0 0 0 0 0 0 0 0 0 0 0 0 0 0 0 0 0 1 1 1 1 1 1 1 1 1 0 1 1 1 1 1 1 0 0 0 0 0
0 0 0 0 0 0 0 0 0 0 0 0 0 0 0 0 0 0 0 0 0 1 1 1 1 1 1 1 1 1 1 0 0 0 1 1 1 1 1 1 1 1 1 1
0 0 0 0 0 0 0 0 0 0 0 0 0 0 0 0 0 0 0 0 0 1 1 1 1 1 1 1 1 1 1 1 0 0 0 1 1 1 1 1 1 1 1 1
0 0 0 0 0 0 0 0 0 0 0 0 0 0 0 0 0 0 0 0 1 1 1 1 1 1 1 1 1 1 1 1 1 1 1 1 1 1 1 1 1 1 1 1
0 0 0 0 0 0 0 0 0 0 0 0 0 0 0 0 0 0 0 1 1 1 1 1 1 1 1 1 1 1 1 1 1 1 1 1 1 1 0 0 0 0 1 1
0 0 0 0 0 0 0 0 0 0 0 0 0 0 0 0 0 1 1 1 1 1 1 1 1 1 1 1 1 1 1 1 1 1 1 1 1 1 1 1 0 0 0 0
Wind_Speed
3 5 4 7 7 6 5 4 2 3 3 4 3 3 6 8 8 8 7 7 7 8 6 5 6 6 5 4 4 4 4 3 3 2 1 1 0 0 0 0 0 0 0 0
4 2 6 6 5 4 4 4 2 1 2 4 1 2 4 8 10 10 10 10 10 8 5 6 6 6 6 6 5 4 4 4 3 2 2 2 1 1 0 1 1 1 0 0
6 5 4 5 4 4 2 5 5 3 3 4 3 3 2 4 6 6 8 9 9 10 9 8 7 7 6 7 7 6 5 4 3 3 2 2 2 2 1 1 1 1 1 0
3 3 4 5 4 6 3 4 5 5 5 1 2 2 6 4 5 8 10 10 10 10 9 8 8 8 8 8 6 5 5 4 4 4 3 3 2 2 1 1 1 1 1 1
4 3 5 5 5 6 5 3 5 4 5 3 2 1 8 1 5 10 11 12 12 11 11 10 10 10 8 7 7 6 5 4 4 4 5 4 3 2 1 0 1 1 2 1
3 2 3 4 2 5 6 8 8 6 5 1 2 3 7 5 8 8 9 11 12 11 11 10 8 7 6 6 6 6 6 5 4 5 5 5 4 3 2 1 0 1 1 1
1 2 1 3 5 3 6 7 4 4 3 5 2 3 10 8 8 9 10 11 11 11 10 10 9 9 8 8 8 7 7 6 5 5 5 5 5 4 3 2 2 1 0 1
4 3 4 3 6 7 5 9 9 6 5 4 1 5 9 6 6 6 6 6 7 9 10 10 11 10 10 9 8 8 8 7 6 6 5 4 4 3 3 3 2 2 1 1
6 5 3 2 3 9 7 4 6 8 3 1 4 7 10 3 3 1 3 5 8 9 10 10 10 9 9 9 9 9 9 7 7 6 5 4 4 4 3 3 2 2 1 1
7 3 3 1 5 5 6 9 6 7 6 2 4 4 5 5 4 2 2 5 6 7 8 9 9 9 9 8 8 8 8 8 7 7 6 5 4 4 3 3 3 2 1 1
5 5 1 2 3 5 5 5 6 5 5 7 3 8 7 7 5 5 5 5 6 7 9 8 8 8 8 7 7 7 7 7 6 6 6 5 4 4 4 3 3 3 2 2
3 6 2 3 2 2 5 7 8 7 4 4 4 9 6 5 5 5 5 4 4 6 7 7 7 7 7 7 7 7 7 7 7 6 6 5 4 4 4 4 4 3 3 2
5 7 3 3 4 2 4 3 4 7 7 5 5 8 4 2 1 2 4 5 5 6 6 6 6 7 7 7 7 7 7 7 6 6 6 5 5 5 5 4 4 3 3 2
6 5 7 9 8 4 3 3 4 7 5 5 7 7 6 4 3 3 3 4 5 6 6 6 6 7 7 7 7 7 7 6 6 6 7 6 6 6 5 5 4 4 3 3
5 4 3 3 3 4 4 5 6 5 8 9 8 7 8 6 6 5 4 5 5 5 6 7 7 7 7 6 6 6 6 6 6 7 7 6 5 5 4 4 4 3 3 4
4 5 3 1 1 3 2 3 6 4 5 4 3 6 7 3 2 2 4 6 7 7 7 7 7 7 8 8 8 7 7 7 7 7 6 6 5 5 5 5 4 3 3 3
2 5 5 2 1 3 2 4 5 3 3 5 6 7 2 2 4 6 7 7 8 8 7 7 8 9 9 8 8 8 8 7 7 7 6 5 6 6 6 5 4 4 4 3
5 4 4 3 3 5 8 3 4 5 2 3 4 4 4 5 5 4 5 7 7 7 7 7 7 7 7 7 7 6 7 7 7 6 6 6 6 6 5 5 5 4 4 4
5 7 5 4 4 3 5 2 4 4 3 2 3 4 2 0 2 3 2 4 6 7 6 6 7 6 7 7 8 7 7 6 7 7 7 7 6 6 6 6 6 5 4 4
4 5 6 5 5 7 8 4 2 5 2 3 2 2 1 3 2 5 3 2 2 2 2 3 5 5 6 7 8 8 7 7 7 8 7 6 6 6 6 6 5 4 4 4
3 3 4 4 4 6 7 4 3 5 7 3 2 3 3 4 6 4 2 1 1 2 3 4 5 5 6 7 8 8 7 8 7 5 5 5 6 6 6 5 4 4 4 3
5 5 4 5 4 7 3 2 5 6 3 1 2 2 3 3 3 1 0 2 2 3 3 4 5 4 4 6 8 7 7 6 5 5 5 5 5 5 5 4 4 4 4 4
4 6 6 7 7 4 2 2 2 2 2 1 2 2 1 1 2 1 1 1 2 3 4 4 5 5 3 5 7 7 5 5 6 5 5 5 5 5 5 5 5 4 4 4
2 1 2 1 3 2 2 1 2 0 1 1 1 1 1 1 2 1 1 1 1 1 3 3 4 4 4 4 5 5 4 5 6 6 5 5 5 4 4 4 5 5 5 5
3 0 1 1 3 2 3 2 2 1 2 2 2 1 1 1 1 1 1 2 2 2 2 3 4 4 4 4 4 4 5 6 6 5 5 4 5 5 5 4 5 6 6 7
3 3 3 5 4 2 4 4 3 1 2 1 1 2 2 1 2 1 2 2 2 2 2 2 3 3 3 3 3 3 4 5 5 4 4 4 4 4 4 4 3 5 7 8
Wind_Direction
59 87 163 193 182 166 156 151 179 232 190 152 196 215 192 184 190 201 204 203 209 218 214 199 195 186 176 178 178 178 172 173 150 138 143 133 139 57 21 304 321 322 299 134
55 222 208 169 154 129 137 141 167 3 99 138 174 249 203 193 201 203 204 206 209 215 205 197 192 185 183 187 187 184 185 179 174 167 156 149 138 124 120 7 15 351 333 138
178 220 159 141 147 138 170 174 178 163 83 59 83 337 237 220 208 211 213 212 208 208 205 199 194 193 190 192 191 194 193 185 178 160 119 96 76 53 35 2 341 335 345 337
211 227 153 153 170 152 215 209 163 142 111 30 93 272 281 226 219 220 218 214 212 211 203 198 195 196 197 198 189 188 185 180 173 156 149 152 156 171 206 236 294 338 357 334
223 188 155 173 194 160 187 117 110 113 110 66 36 135 284 256 239 237 224 216 214 207 200 199 198 197 196 190 182 180 178 180 173 164 165 159 166 180 169 150 328 343 349 334
222 219 173 178 148 139 121 79 61 52 67 27 238 164 275 236 225 239 226 216 211 205 198 198 195 187 187 181 177 175 176 183 176 171 172 173 178 175 161 179 272 316 331 329
328 312 257 136 96 69 100 98 57 20 17 254 243 191 250 247 230 225 226 219 207 198 192 189 186 185 186 182 182 179 177 186 183 177 182 183 182 179 187 196 205 213 268 298
159 256 232 181 159 162 164 137 151 174 204 269 309 234 254 261 255 235 222 209 193 189 190 191 189 187 188 187 183 179 180 188 185 182 187 186 180 181 194 199 194 198 206 229
163 233 275 201 151 136 137 151 150 125 130 133 276 285 299 290 306 262 192 180 191 189 188 188 186 185 186 185 186 185 184 187 186 185 183 184 185 186 193 192 187 197 209 201
149 184 270 238 84 41 131 140 105 115 136 205 287 279 259 280 274 259 204 198 200 186 181 182 184 184 185 185 182 181 184 186 185 184 188 190 190 192 189 178 184 188 197 181
131 145 290 78 152 165 109 98 105 111 142 150 214 266 233 228 232 225 221 206 194 181 181 182 184 182 174 170 172 179 179 176 179 183 184 185 184 183 180 185 194 193 189 177
134 124 180 249 265 169 140 152 143 145 182 159 167 262 266 236 236 216 210 197 186 176 174 174 174 170 169 172 175 179 178 181 185 183 181 185 180 173 180 192 197 190 188 185
134 118 110 347 352 26 93 127 130 120 116 145 164 260 302 335 291 228 196 188 173 162 161 159 159 166 173 177 178 177 179 183 181 176 177 178 180 179 189 196 191 185 185 187
117 114 158 189 204 185 158 147 144 125 139 178 211 246 294 301 277 259 209 182 170 169 167 164 166 173 177 178 176 174 175 174 170 168 172 180 188 189 191 189 186 186 183 185
102 130 164 197 198 168 176 177 171 169 175 176 215 222 248 245 234 230 202 175 165 171 173 178 178 177 174 171 172 173 171 168 166 166 176 186 186 180 176 178 185 187 186 193
63 131 137 196 209 176 170 191 181 184 176 192 197 246 251 252 226 203 189 176 182 190 188 187 181 177 179 179 177 174 172 169 164 171 183 182 173 173 179 185 184 184 189 191
59 118 124 213 268 107 229 211 183 181 185 166 196 237 255 233 222 212 202 193 201 200 191 185 187 188 186 182 177 178 174 164 166 175 179 179 179 182 188 187 183 193 200 199
136 115 126 141 114 194 234 231 174 163 197 202 225 251 226 220 232 232 206 199 209 202 194 193 190 188 180 172 169 166 160 161 168 175 180 182 185 189 185 183 193 201 200 202
154 134 121 128 160 248 289 233 159 157 247 227 233 273 271 322 41 318 240 208 213 208 200 193 184 180 169 165 160 153 160 164 171 182 188 188 185 186 188 196 203 204 200 208
82 101 116 129 150 209 236 251 215 127 254 276 208 238 212 109 123 258 268 250 242 205 176 172 159 153 161 166 154 154 166 173 189 195 193 187 184 186 195 202 204 201 199 208
93 84 125 146 179 246 250 271 108 151 232 271 226 208 181 190 214 246 257 216 188 161 149 144 139 155 171 163 155 164 174 194 202 190 182 183 186 191 196 195 193 190 193 196
166 152 169 146 166 242 275 114 159 205 229 226 234 217 204 239 270 309 100 154 136 125 126 141 145 158 161 157 160 173 193 198 176 170 179 187 188 194 194 189 193 187 185 197
194 187 180 182 202 236 269 195 217 179 190 236 228 242 204 253 276 272 230 173 160 154 152 151 153 153 158 165 168 183 197 170 163 170 185 191 191 194 191 192 194 191 191 204
280 151 140 209 261 276 308 320 330 321 213 270 247 230 157 210 254 240 222 190 163 165 160 146 143 155 176 179 178 187 178 165 167 181 192 191 192 201 199 198 198 197 200 207
254 212 121 237 266 328 333 327 321 348 13 19 16 352 219 171 205 211 201 199 185 188 177 161 162 175 188 182 184 180 171 165 174 186 195 195 198 203 207 208 209 208 212 207
227 192 177 221 227 204 266 298 318 350 359 355 41 7 345 218 181 172 185 201 181 179 169 158 164 172 179 176 182 182 178 173 175 186 197 203 204 205 207 210 226 230 225 220